Simultaneous Nadir Overpasses (SNOs) Predictions

Prediction of SNOs between LANDSAT-8 and METOP-B Satellite Orbit:

Table of predicted SNOs for the next 14.0 days since TLE Epoch: 11/16/2024
Index Date (LANDSAT-8) Time (LANDSAT-8) Lat,Lon (LANDSAT-8) SZA (LANDSAT-8 ) Date (METOP-B) Time (METOP-B) Lat,Lon (METOP-B) SZA (METOP-B ) Distance(km) Time Diff (sec)
1 11/17/2024 09:22:28 -81.41, -95.59 76.67 11/17/2024 09:21:59 -81.41, -95.54 76.67 0.83 29
2 11/17/2024 10:11:54 81.42, 72.17 103.36 11/17/2024 10:12:38 81.42, 72.36 103.41 3.24 44
3 11/20/2024 04:56:47 -81.41, -29.15 76.03 11/20/2024 04:56:05 -81.42, -28.95 76.03 3.28 42
4 11/20/2024 05:46:13 81.42, 138.58 103.99 11/20/2024 05:46:45 81.42, 138.53 104.00 0.78 32
5 11/23/2024 00:31:04 -81.42, 37.31 75.44 11/23/2024 00:30:10 -81.42, 37.49 75.45 2.89 54
6 11/23/2024 01:20:30 81.42,-154.99 104.57 11/23/2024 01:20:50 81.42,-155.06 104.58 1.05 20
7 11/25/2024 20:05:21 -81.42, 103.80 74.91 11/25/2024 20:04:16 -81.41, 103.78 74.94 0.55 65
8 11/25/2024 20:54:47 81.42, -88.54 105.11 11/25/2024 20:54:55 81.42, -88.39 105.13 2.45 8
9 11/28/2024 16:29:03 81.42, -22.06 105.59 11/28/2024 16:29:00 81.42, -21.88 105.61 3.08 3



Historial Predications of SNOs between LANDSAT-8 and METOP-B
